Weather History for Jacksonville, FL

Change the Weather History Date:

Saturday, January 1, 2005

  Actual Average Record
Temperature  
Mean Temperature 60 °F 53 °F  
Max Temperature 71 °F 65 °F 81 °F (1967)
Min Temperature 48 °F 41 °F 21 °F (1918)
Degree Days  
Heating Degree Days 6 12  
Month to date heating degree days 12  
Since 1 July heating degree days 508  
Cooling Degree Days 0 0  
Month to date cooling degree days 0  
Year to date cooling degree days 0  
Growing Degree Days 10 (Base 50)    
Moisture  
Dew Point 55 °F    
Average Humidity 89    
Maximum Humidity 100    
Minimum Humidity 66    
Precipitation  
Precipitation 0.01 in 0.09 in 1.20 in (1881)
Month to date precipitation 0.09  
Year to date precipitation 0.09  
Snow  
Snow 0.00 in 0.00 in 0.00 in (2002)
Month to date snowfall 0.0  
Since 1 July snowfall T  
Snow Depth -    
Sea Level Pressure  
Sea Level Pressure 30.40 in    
Wind  
Wind Speed 3 mph (NE)    
Max Wind Speed 13 mph    
Max Gust Speed -    
Visibility 8 miles    
Events      
T = Trace of Precipitation, MM = Missing Value Source: NWS Daily Summary

Daily Weather History Graph

Daily Weather History Graph

Search for Another Location

Airport:

Trip Planner

Search our weather history database for the weather conditions in past years. The results will help you decide how hot, cold, wet, or windy it might be!

Date:

Astronomy

Jan. 01, 2005 Rise Set
Actual Time 7:23 AM EST 5:37 PM EST
Civil Twilight 6:57 AM EST 6:03 PM EST
Nautical Twilight 6:27 AM EST 6:33 PM EST
Astronomical Twilight 5:58 AM EST 7:02 PM EST
Moon 11:08 PM EST (1/1) 11:18 AM EST (1/1)
Length of Visible Light 11h 06m
Length of Day
10h 13m
Waning Gibbous, 70% of the Moon is Illuminated
Jan 1
Waning Gibbous
Jan 3
Last Quarter
Jan 10
New
Jan 17
First Quarter
Jan 25
Full

Hourly Weather History & Observations

Time (EST) Temp. Dew Point Humidity Pressure Visibility Wind Dir Wind Speed Gust Speed Precip Events Conditions
12:56 AM 52.0 °F 51.1 °F 97% 30.38 in 5.0 mi Calm Calm - N/A   Mostly Cloudy
1:56 AM 52.0 °F 51.1 °F 97% 30.38 in 5.0 mi North 3.5 mph - 0.01 in   Mostly Cloudy
2:56 AM 53.1 °F 52.0 °F 96% 30.38 in 5.0 mi North 3.5 mph - N/A   Mostly Cloudy
3:56 AM 51.1 °F 50.0 °F 96% 30.36 in 3.0 mi Calm Calm - N/A   Scattered Clouds
4:56 AM 52.0 °F 51.1 °F 97% 30.37 in 6.0 mi Calm Calm - N/A   Mostly Cloudy
5:56 AM 52.0 °F 51.1 °F 97% 30.38 in 6.0 mi Calm Calm - N/A   Mostly Cloudy
6:56 AM 50.0 °F 48.9 °F 96% 30.40 in 3.0 mi Calm Calm - N/A   Mostly Cloudy
7:04 AM 48.2 °F 48.2 °F 100% 30.40 in 2.0 mi Calm Calm - N/A   Mostly Cloudy
7:56 AM 48.9 °F 48.9 °F 100% 30.41 in 5.0 mi Calm Calm - N/A   Mostly Cloudy
8:56 AM 57.9 °F 55.9 °F 93% 30.43 in 10.0 mi Calm Calm - N/A   Mostly Cloudy
9:56 AM 64.9 °F 57.9 °F 78% 30.45 in 10.0 mi ENE 8.1 mph - N/A   Mostly Cloudy
10:56 AM 69.1 °F 60.1 °F 73% 30.45 in 10.0 mi ENE 9.2 mph - N/A   Mostly Cloudy
11:56 AM 71.1 °F 59.0 °F 66% 30.43 in 10.0 mi East 12.7 mph - N/A   Mostly Cloudy
12:56 PM 70.0 °F 59.0 °F 68% 30.40 in 10.0 mi East 11.5 mph - N/A   Mostly Cloudy
1:56 PM 68.0 °F 60.1 °F 76% 30.38 in 10.0 mi ENE 12.7 mph - N/A   Mostly Cloudy
2:56 PM 69.1 °F 60.1 °F 73% 30.38 in 10.0 mi East 10.4 mph - N/A   Mostly Cloudy
3:56 PM 66.9 °F 60.1 °F 79% 30.38 in 10.0 mi ENE 5.8 mph - N/A   Mostly Cloudy
4:56 PM 66.9 °F 60.1 °F 79% 30.38 in 10.0 mi NNE 5.8 mph - N/A   Mostly Cloudy
5:56 PM 63.0 °F 59.0 °F 87% 30.39 in 10.0 mi Calm Calm - N/A   Scattered Clouds
6:56 PM 60.1 °F 57.9 °F 93% 30.39 in 10.0 mi Calm Calm - N/A   Scattered Clouds
7:56 PM 59.0 °F 57.0 °F 93% 30.39 in 10.0 mi NE 3.5 mph - N/A   Mostly Cloudy
8:56 PM 59.0 °F 57.0 °F 93% 30.40 in 10.0 mi NE 4.6 mph - N/A   Mostly Cloudy
9:56 PM 59.0 °F 57.0 °F 93% 30.41 in 6.0 mi NE 3.5 mph - N/A   Mostly Cloudy
10:56 PM 57.0 °F 55.9 °F 96% 30.41 in 6.0 mi Calm Calm - N/A   Mostly Cloudy
11:56 PM 55.9 °F 55.0 °F 97% 30.40 in 5.0 mi Calm Calm - N/A   Mostly Cloudy